EJU798L LFRN-LFMN

Flight info

Callsign EJU798L
Flight time N/A
Altitude 33000
Route ANG DCT BALAN DCT SOMTI DCT NISAR
Aircraft A320/M-SDE2E3FGHIRWXY/LB1

Departure

Time 2026-04-23 12:29
Airport Rennes-Saint-Jacques Airport (LFRN)

Arrival

Time N/A
Airport Nice-Côte d'Azur Airport (LFMN)
Time Latitude Longitude Altitude Speed Heading
2026-04-23 12:17 48.06892 -1.72568 128 ft 0 kts 223°
2026-04-23 12:24 48.06893 -1.72576 128 ft 1 kts 306°
2026-04-23 12:24 48.06918 -1.72579 128 ft 5 kts
2026-04-23 12:24 48.06959 -1.72591 128 ft 7 kts 298°
2026-04-23 12:25 48.06974 -1.72697 127 ft 13 kts 280°
2026-04-23 12:25 48.06996 -1.72870 125 ft 19 kts 281°
2026-04-23 12:25 48.07025 -1.73084 125 ft 23 kts 282°
2026-04-23 12:25 48.07056 -1.73341 122 ft 27 kts 281°
2026-04-23 12:26 48.07116 -1.73526 121 ft 15 kts 323°
2026-04-23 12:26 48.07219 -1.73606 117 ft 17 kts 331°
2026-04-23 12:26 48.07264 -1.73788 111 ft 21 kts 280°
2026-04-23 12:26 48.07295 -1.74023 103 ft 26 kts 280°
2026-04-23 12:27 48.07330 -1.74309 94 ft 30 kts 281°
2026-04-23 12:27 48.07305 -1.74531 89 ft 14 kts 251°
2026-04-23 12:27 48.07350 -1.74601 88 ft 10 kts 14°
2026-04-23 12:27 48.07363 -1.74569 88 ft 0 kts 101°
2026-04-23 12:28 48.07343 -1.74398 91 ft 48 kts 99°
2026-04-23 12:28 48.07241 -1.73591 118 ft 109 kts 101°
2026-04-23 12:28 48.07067 -1.72223 163 ft 155 kts 99°
2026-04-23 12:29 48.06836 -1.70691 744 ft 155 kts 101°
2026-04-23 12:29 48.06621 -1.69132 1458 ft 155 kts 100°
2026-04-23 12:29 48.06423 -1.67601 2132 ft 153 kts 101°
2026-04-23 12:29 48.06212 -1.65962 2482 ft 168 kts 101°
2026-04-23 12:30 48.05841 -1.64253 2793 ft 187 kts 120°
2026-04-23 12:30 48.04923 -1.62694 3097 ft 211 kts 131°
2026-04-23 12:30 48.03833 -1.61137 3522 ft 227 kts 133°
2026-04-23 12:30 48.02672 -1.59466 4094 ft 238 kts 132°
2026-04-23 12:31 48.01505 -1.57751 4821 ft 242 kts 132°
2026-04-23 12:31 48.00322 -1.55988 5570 ft 245 kts 131°
2026-04-23 12:31 47.99126 -1.54182 6309 ft 249 kts 131°
2026-04-23 12:31 47.97904 -1.52327 7056 ft 254 kts 131°
2026-04-23 12:32 47.96675 -1.50457 7790 ft 258 kts 131°
2026-04-23 12:32 47.95435 -1.48564 8514 ft 263 kts 131°
2026-04-23 12:32 47.94183 -1.46646 9247 ft 267 kts 130°
2026-04-23 12:32 47.92883 -1.44657 9992 ft 271 kts 130°
2026-04-23 12:33 47.91568 -1.42641 10677 ft 276 kts 131°
2026-04-23 12:33 47.90247 -1.40613 11058 ft 292 kts 131°
2026-04-23 12:33 47.88822 -1.38426 11376 ft 309 kts 131°
2026-04-23 12:33 47.87315 -1.36118 11724 ft 324 kts 131°
2026-04-23 12:34 47.85773 -1.33761 12279 ft 331 kts 132°
2026-04-23 12:34 47.84338 -1.31574 12851 ft 335 kts 132°
2026-04-23 12:34 47.82641 -1.28990 13495 ft 340 kts 132°
2026-04-23 12:34 47.81047 -1.26561 14090 ft 344 kts 132°
2026-04-23 12:35 47.79433 -1.24106 14649 ft 349 kts 132°
2026-04-23 12:35 47.77776 -1.21586 15191 ft 353 kts 132°
2026-04-23 12:35 47.76100 -1.19039 15710 ft 358 kts 132°
2026-04-23 12:35 47.74395 -1.16451 16236 ft 363 kts 132°
2026-04-23 12:36 47.72670 -1.13832 16753 ft 367 kts 132°
2026-04-23 12:36 47.70925 -1.11189 17253 ft 372 kts 132°
2026-04-23 12:36 47.69128 -1.08467 17722 ft 376 kts 132°
2026-04-23 12:36 47.67355 -1.05781 18184 ft 381 kts 132°
2026-04-23 12:37 47.65556 -1.03062 18671 ft 385 kts 132°
2026-04-23 12:37 47.63751 -1.00339 19150 ft 388 kts 132°
2026-04-23 12:37 47.61940 -0.97610 19616 ft 391 kts 132°
2026-04-23 12:37 47.60084 -0.94815 20097 ft 394 kts 132°
2026-04-23 12:38 47.58243 -0.92047 20558 ft 397 kts 132°
2026-04-23 12:38 47.56350 -0.89202 20993 ft 401 kts 132°
2026-04-23 12:38 47.54449 -0.86293 21453 ft 403 kts 130°
2026-04-23 12:38 47.52655 -0.83253 21885 ft 405 kts 127°
2026-04-23 12:39 47.51040 -0.80223 22280 ft 408 kts 126°
2026-04-23 12:39 47.49312 -0.76924 22683 ft 412 kts 126°
2026-04-23 12:39 47.47608 -0.73668 23098 ft 415 kts 126°
2026-04-23 12:39 47.45865 -0.70342 23502 ft 418 kts 126°
2026-04-23 12:40 47.44130 -0.67041 23881 ft 421 kts 126°
2026-04-23 12:40 47.42352 -0.63662 24233 ft 425 kts 126°
2026-04-23 12:40 47.40588 -0.60318 24596 ft 428 kts 126°
2026-04-23 12:40 47.38790 -0.56912 24974 ft 430 kts 126°
2026-04-23 12:41 47.37012 -0.53552 25309 ft 434 kts 126°
2026-04-23 12:41 47.35171 -0.50075 25633 ft 437 kts 126°
2026-04-23 12:41 47.33329 -0.46600 25969 ft 440 kts 126°
2026-04-23 12:41 47.31481 -0.43118 26301 ft 442 kts 126°
2026-04-23 12:42 47.29605 -0.39587 26599 ft 446 kts 126°
2026-04-23 12:42 47.27740 -0.36082 26906 ft 448 kts 126°
2026-04-23 12:42 47.25962 -0.32746 27177 ft 451 kts 127°
2026-04-23 12:42 47.24084 -0.29228 27438 ft 455 kts 127°
2026-04-23 12:43 47.22152 -0.25612 27748 ft 457 kts 127°
2026-04-23 12:43 47.20223 -0.22008 28048 ft 459 kts 127°
2026-04-23 12:43 47.18284 -0.18387 28323 ft 462 kts 127°
2026-04-23 12:43 47.16318 -0.14723 28581 ft 465 kts 127°
2026-04-23 12:44 47.14362 -0.11081 28854 ft 467 kts 127°
2026-04-23 12:44 47.12397 -0.07425 29147 ft 469 kts 127°
2026-04-23 12:44 47.10410 -0.03737 29383 ft 471 kts 127°
2026-04-23 12:44 47.08393 0.00005 29645 ft 473 kts 127°
2026-04-23 12:45 47.06394 0.03706 29900 ft 475 kts 127°
2026-04-23 12:45 47.04384 0.07426 30121 ft 478 kts 127°
2026-04-23 12:45 47.02346 0.11190 30341 ft 480 kts 127°
2026-04-23 12:45 47.00321 0.14926 30560 ft 483 kts 127°
2026-04-23 12:46 46.98269 0.18704 30771 ft 485 kts 127°
2026-04-23 12:46 46.96231 0.22455 31000 ft 486 kts 127°
2026-04-23 12:46 46.94185 0.26211 31302 ft 486 kts 127°
2026-04-23 12:46 46.92121 0.29998 31601 ft 485 kts 127°
2026-04-23 12:47 46.90073 0.33749 31829 ft 487 kts 127°
2026-04-23 12:47 46.88058 0.37433 31991 ft 489 kts 127°
2026-04-23 12:47 46.85983 0.41224 32169 ft 491 kts 127°
2026-04-23 12:47 46.83937 0.44957 32372 ft 491 kts 127°
2026-04-23 12:48 46.81913 0.48645 32552 ft 493 kts 127°
2026-04-23 12:48 46.79853 0.52393 32736 ft 494 kts 126°
2026-04-23 12:48 46.77957 0.55882 32876 ft 495 kts 126°
2026-04-23 12:49 46.73640 0.63909 33185 ft 497 kts 126°
2026-04-23 12:49 46.71612 0.67684 33191 ft 498 kts 127°
2026-04-23 12:49 46.67462 0.75381 33185 ft 499 kts 127°